TimeEST,TemperatureF,Dew PointF,Humidity,Sea Level PressureIn,VisibilityMPH,Wind Direction,Wind SpeedMPH,Gust SpeedMPH,PrecipitationIn,Events,Conditions,WindDirDegrees,DateUTC
12:53 AM,70.0,68.0,93,30.16,7.0,East,6.9,-,N/A,,Scattered Clouds,80,2013-01-09 05:53:00
1:53 AM,71.1,69.1,93,30.17,8.0,East,9.2,-,N/A,,Overcast,80,2013-01-09 06:53:00
2:53 AM,70.0,68.0,93,30.17,8.0,East,8.1,-,N/A,,Overcast,80,2013-01-09 07:53:00
3:53 AM,70.0,68.0,93,30.16,7.0,East,8.1,-,N/A,,Mostly Cloudy,100,2013-01-09 08:53:00
4:53 AM,70.0,68.0,93,30.17,6.0,East,8.1,-,N/A,,Scattered Clouds,90,2013-01-09 09:53:00
5:53 AM,70.0,68.0,93,30.17,7.0,East,5.8,-,N/A,,Partly Cloudy,90,2013-01-09 10:53:00
6:44 AM,69.8,68.0,94,30.20,7.0,East,4.6,-,N/A,,Mostly Cloudy,90,2013-01-09 11:44:00
6:53 AM,69.1,68.0,96,30.19,7.0,East,4.6,-,N/A,,Scattered Clouds,90,2013-01-09 11:53:00
7:53 AM,69.1,68.0,96,30.21,5.0,East,5.8,-,N/A,,Clear,100,2013-01-09 12:53:00
8:53 AM,73.0,69.1,87,30.24,10.0,ESE,9.2,-,N/A,,Clear,110,2013-01-09 13:53:00
9:53 AM,77.0,69.1,76,30.25,10.0,SE,12.7,20.7,N/A,,Clear,130,2013-01-09 14:53:00
10:53 AM,79.0,66.9,66,30.24,10.0,SE,13.8,20.7,N/A,,Scattered Clouds,140,2013-01-09 15:53:00
11:53 AM,81.0,66.0,60,30.23,10.0,ESE,12.7,20.7,N/A,,Mostly Cloudy,110,2013-01-09 16:53:00
12:53 PM,82.0,64.9,56,30.20,10.0,SE,9.2,-,N/A,,Partly Cloudy,130,2013-01-09 17:53:00
1:53 PM,84.9,62.1,46,30.18,10.0,ESE,15.0,21.9,N/A,,Scattered Clouds,120,2013-01-09 18:53:00
2:53 PM,84.0,61.0,46,30.17,10.0,ESE,9.2,-,N/A,,Scattered Clouds,120,2013-01-09 19:53:00
3:53 PM,82.9,61.0,47,30.18,10.0,ESE,15.0,-,N/A,,Scattered Clouds,120,2013-01-09 20:53:00
4:53 PM,82.0,64.0,54,30.19,10.0,East,11.5,-,N/A,,Scattered Clouds,100,2013-01-09 21:53:00
5:53 PM,79.0,64.9,62,30.20,10.0,East,11.5,-,N/A,,Partly Cloudy,100,2013-01-09 22:53:00
6:53 PM,77.0,64.9,66,30.22,10.0,East,10.4,-,N/A,,Clear,100,2013-01-09 23:53:00
7:53 PM,75.0,66.0,73,30.24,10.0,East,11.5,-,N/A,,Clear,100,2013-01-10 00:53:00
8:53 PM,73.0,66.9,81,30.25,10.0,ESE,11.5,-,N/A,,Clear,110,2013-01-10 01:53:00
9:53 PM,72.0,66.9,84,30.25,10.0,East,10.4,-,N/A,,Clear,90,2013-01-10 02:53:00
10:53 PM,71.1,66.9,87,30.26,10.0,ESE,6.9,-,N/A,,Scattered Clouds,110,2013-01-10 03:53:00
11:53 PM,72.0,68.0,87,30.26,10.0,East,9.2,-,N/A,,Overcast,100,2013-01-10 04:53:00